Temperature
23 21 20 22 28 33 32 33 32 34 33 31 30 30 30 30 29 27 22 21 21 21 20 21 20 20 19 19 19 19 19 19 19 19 19 20 20 20 20 20 20 20 20 20 20 20 20 19 20
22 21 22 26 32 33 32 32 33 32 31 30 30 29 30 28 25 22 21 21 21 21 20 20 21 20 20 19 19 19 19 20 20 20 20 20 20 20 20 20 20 20 20 20 20 20 20 20 20
22 21 25 32 33 33 32 32 32 31 30 30 30 30 29 27 24 23 22 21 21 20 19 19 21 21 20 20 20 20 20 20 20 20 20 20 20 20 20 20 20 20 20 20 20 19 19 19 19
22 24 28 32 34 33 33 32 31 32 31 30 30 29 27 24 23 22 21 21 21 20 19 21 21 21 21 20 20 20 20 20 20 20 20 20 20 20 20 20 20 20 19 19 19 19 19 19 19
23 28 33 33 35 33 33 31 31 33 32 31 30 30 27 22 22 22 21 21 21 20 20 21 21 21 21 21 21 20 20 20 20 20 20 20 20 19 19 19 20 19 19 19 19 19 18 18 18
28 31 33 34 33 33 33 32 32 32 31 30 31 30 26 22 22 21 21 21 21 21 20 19 21 21 21 21 20 20 20 20 20 20 20 19 19 19 19 19 19 19 19 19 19 19 19 19 18
29 32 33 33 33 33 33 32 32 33 32 30 30 30 26 23 22 21 21 21 21 21 20 19 20 21 21 20 20 20 20 20 20 20 20 19 19 19 19 19 19 19 19 19 19 19 19 19 19
29 32 33 34 33 33 32 32 31 31 32 29 29 31 28 23 21 21 20 20 20 20 20 19 19 19 20 20 20 20 20 20 20 20 19 19 19 19 19 19 19 18 19 19 19 19 19 19 19
28 32 33 35 33 33 33 33 31 30 30 30 28 28 26 23 22 21 21 20 20 19 19 19 19 19 18 18 20 20 20 19 19 19 19 19 18 18 18 18 18 18 18 18 18 18 18 18 18
30 32 34 33 33 33 33 33 32 31 31 31 27 25 23 22 22 22 22 21 20 20 20 20 20 19 19 18 18 18 17 17 17 17 17 18 18 18 18 18 18 18 18 18 18 18 18 18 18
30 32 32 31 31 31 32 33 33 33 33 32 30 25 23 23 23 23 23 22 21 21 21 20 21 21 20 19 18 18 18 18 18 18 17 18 18 18 18 17 18 18 18 18 18 18 18 17 17
28 31 30 30 30 30 31 32 33 33 32 29 29 25 24 24 24 24 23 22 22 21 22 22 21 21 20 19 19 19 18 18 18 18 18 18 17 17 17 17 18 18 18 18 17 17 17 17 17
29 30 30 30 30 31 31 31 32 33 32 28 27 25 25 25 24 23 23 22 22 22 22 21 21 21 20 19 18 18 18 18 18 18 18 17 17 17 17 17 17 18 18 18 18 16 16 18 18
29 29 30 30 31 31 31 32 32 33 30 28 27 26 26 25 25 23 22 22 22 22 21 21 21 20 20 19 19 19 19 18 18 18 17 17 17 17 17 17 17 17 18 18 17 16 16 18 18
28 29 31 32 31 30 31 32 32 32 29 28 27 26 25 25 24 24 23 23 22 22 21 21 20 20 20 20 19 19 19 18 18 18 17 17 17 17 17 17 16 17 17 17 16 16 17 19 19
28 30 31 32 31 30 30 31 33 29 29 28 26 25 24 24 24 24 23 23 22 22 21 21 21 20 19 19 18 19 18 18 18 17 17 17 17 17 17 17 17 17 17 17 17 16 18 18 18
29 30 31 31 31 30 30 31 29 27 29 28 26 25 24 24 23 23 22 21 21 21 21 20 20 20 19 19 19 18 18 18 17 17 17 16 17 16 16 16 16 16 16 16 16 16 16 17 17
30 30 30 30 30 31 30 30 28 27 28 27 26 25 24 24 23 22 22 21 21 21 21 20 20 20 20 20 19 19 18 17 17 17 17 16 17 16 16 16 16 15 15 16 16 16 16 16 16
29 29 29 29 30 30 29 29 28 26 26 26 25 25 24 24 22 22 21 22 21 21 21 20 20 21 20 19 19 19 19 18 18 17 17 17 16 15 15 15 15 15 15 15 15 15 16 16 16
29 29 29 30 29 30 29 29 28 26 26 26 25 25 24 23 22 22 22 22 22 21 21 21 20 21 20 19 19 19 18 18 18 17 16 16 16 15 15 15 14 14 14 14 14 14 15 16 17
29 28 28 28 29 29 29 28 29 28 26 25 25 25 24 24 23 22 23 23 22 22 21 21 21 21 20 20 19 18 18 18 18 17 17 16 15 15 15 15 14 15 14 14 14 14 14 15 16
29 28 28 27 27 28 28 26 29 29 28 27 25 24 24 24 23 23 23 23 22 22 21 21 22 21 21 20 19 19 19 19 18 17 17 16 15 15 15 14 13 14 14 13 13 13 13 14 15
28 28 28 27 27 27 28 27 29 28 27 28 27 25 24 24 22 23 22 23 22 22 21 21 21 21 21 21 20 19 19 19 18 17 16 15 15 14 14 14 13 13 13 13 13 13 13 13 14
28 27 27 27 27 27 26 27 28 27 26 27 27 24 23 23 22 21 22 22 21 20 20 20 20 21 21 21 20 20 19 19 18 17 16 16 15 15 14 13 13 12 12 12 12 13 13 13 14
28 27 27 28 28 27 26 26 26 23 22 22 21 19 19 19 18 17 18 18 18 18 19 19 19 20 20 20 20 19 19 19 18 16 16 16 15 15 14 14 13 13 12 12 12 12 13 13 13
27 26 25 26 26 26 26 26 23 21 20 19 18 18 17 17 17 16 15 15 15 15 15 16 16 17 18 19 19 19 19 18 17 16 17 16 16 15 15 15 14 13 12 12 13 12 13 13 13
25 28 27 27 25 25 27 27 23 21 19 18 17 16 16 15 15 15 14 14 14 14 13 13 13 14 15 16 16 17 18 18 17 16 17 16 16 16 15 15 14 14 13 12 12 13 13 13 12
26 27 26 27 25 25 26 26 25 19 18 18 16 16 15 15 15 14 14 13 12 12 12 12 12 12 13 13 14 14 15 15 15 15 15 15 15 15 15 15 14 12 12 12 13 13 13 12 12
27 27 26 25 26 24 24 25 19 17 17 17 16 15 15 14 14 14 13 13 12 12 12 11 11 12 13 13 12 13 13 13 14 14 14 14 14 15 14 14 13 12 12 12 13 12 13 13 13
26 27 26 25 25 24 24 22 17 17 16 16 16 15 14 14 13 13 13 12 12 11 11 10 10 10 11 12 13 13 12 12 13 13 13 14 13 13 13 13 13 13 12 12 12 12 12 13 13
Wind_Speed
9 7 5 4 5 3 7 5 3 5 5 5 4 2 3 6 5 4 8 11 15 19 21 20 16 15 14 13 13 14 15 15 15 14 12 11 11 11 10 9 8 7 7 6 6 6 6 6 6
4 4 4 4 5 6 7 4 4 7 6 3 4 2 3 7 6 7 10 12 18 19 20 19 17 15 14 14 13 14 14 14 13 12 11 10 10 9 8 7 7 6 5 5 5 5 5 5 5
5 5 4 4 2 4 6 4 5 3 2 2 2 4 4 6 5 6 10 17 18 17 18 19 18 16 16 15 15 14 14 13 13 12 11 10 9 8 8 7 6 5 4 3 3 4 4 5 5
5 5 5 6 2 5 2 4 2 2 2 2 2 6 6 6 4 8 15 18 18 16 16 20 18 17 16 15 15 14 14 13 12 11 10 10 9 8 7 6 5 5 4 4 4 3 4 5 5
5 5 7 7 3 3 2 1 1 1 2 4 3 7 7 6 9 14 16 17 16 15 15 18 16 16 16 16 15 14 14 13 11 10 9 9 8 8 7 6 5 5 4 4 4 4 3 3 5
4 5 7 5 5 4 4 4 3 2 2 3 5 9 8 9 11 14 16 15 14 14 14 18 16 15 15 15 15 15 14 13 12 11 10 9 8 8 7 7 7 7 7 7 6 6 5 6 7
7 7 8 5 3 4 2 3 4 1 2 3 2 6 9 12 13 14 14 13 12 12 12 15 15 14 13 13 13 12 12 12 12 12 11 10 9 9 9 9 10 10 10 9 8 8 8 9 8
4 7 8 6 5 3 2 3 1 4 3 3 1 4 10 16 15 14 12 11 10 9 10 10 12 14 13 13 14 14 14 14 14 13 12 12 11 11 11 11 13 12 11 11 11 11 11 11 10
4 8 10 5 3 5 3 1 3 1 3 2 4 8 13 20 17 15 13 11 10 9 8 9 10 11 11 12 13 14 14 13 13 13 13 13 12 13 14 13 10 10 11 12 12 13 13 12 14
5 11 4 3 2 2 2 2 1 4 5 5 7 11 16 19 18 15 13 12 12 12 11 10 9 9 10 10 10 12 13 14 14 14 14 14 13 11 8 7 7 10 12 13 14 15 13 12 14
5 9 4 3 5 7 6 4 4 7 6 3 6 15 17 18 16 14 12 11 11 11 11 11 10 9 9 9 9 10 12 13 13 12 12 13 11 10 9 11 11 12 13 13 13 13 11 9 11
6 8 6 6 7 8 8 8 7 9 0 5 6 17 19 18 16 14 12 10 10 11 11 12 12 10 9 8 8 8 8 9 9 12 12 12 8 9 10 9 10 9 10 10 10 7 9 10 13
8 8 8 8 9 10 10 11 10 9 1 5 11 17 18 18 15 13 10 9 9 10 10 10 9 8 7 7 6 5 7 8 11 11 12 10 8 9 9 9 9 11 12 9 5 6 9 11 12
5 10 12 9 7 7 9 12 10 11 4 8 12 15 17 16 16 13 11 11 10 10 9 9 8 7 7 7 8 7 7 8 9 9 10 10 9 8 10 9 9 10 11 9 2 3 9 16 14
8 10 12 7 3 3 8 15 15 5 5 10 12 14 15 15 14 13 11 10 10 10 9 8 8 8 8 8 8 7 8 8 8 9 10 13 11 10 10 9 10 10 11 8 4 6 10 18 16
8 10 10 5 2 1 5 15 7 3 9 11 13 14 15 14 12 10 8 7 7 8 9 8 7 7 7 7 7 6 8 8 8 8 7 11 10 10 9 8 8 8 9 5 7 10 13 17 16
10 10 6 3 2 2 4 9 4 4 10 12 13 14 14 13 11 8 7 6 6 7 7 7 7 6 5 5 5 5 5 6 6 7 6 6 7 6 6 5 6 6 7 6 7 11 13 14 14
5 6 5 3 4 6 4 3 0 3 8 10 11 12 12 12 10 9 8 8 7 6 6 5 5 4 3 3 4 3 4 5 5 5 4 3 3 2 3 5 6 7 9 9 9 11 12 13 14
2 3 2 1 5 6 6 3 3 5 7 9 11 11 10 9 9 9 8 7 8 7 7 5 4 4 3 3 2 2 3 3 3 2 2 3 3 2 4 7 8 9 10 11 12 13 15 15 15
1 4 3 2 2 6 6 5 4 7 9 10 11 11 10 9 9 8 7 7 8 8 8 6 5 6 4 3 2 2 3 4 3 3 3 4 4 4 5 6 8 10 11 13 14 14 14 15 15
6 7 8 8 9 11 10 12 10 10 8 9 10 9 8 9 9 8 8 9 8 8 8 7 6 6 6 4 4 5 6 7 7 7 7 4 5 6 6 7 9 10 11 12 12 13 15 15 15
8 5 5 7 10 9 5 10 10 9 10 13 11 9 8 7 8 8 9 9 8 8 8 8 8 8 7 7 6 6 7 7 7 7 7 6 5 6 8 8 9 9 10 12 11 10 12 15 15
5 4 4 8 12 10 5 7 5 3 8 13 13 9 7 8 9 8 9 7 4 4 6 8 9 10 9 9 9 8 8 8 7 7 6 7 6 6 7 7 9 10 11 11 13 13 12 13 16
4 7 11 11 8 4 4 4 2 8 11 9 3 3 2 1 2 1 6 5 6 6 7 8 8 10 10 10 10 9 8 9 9 7 7 7 7 6 5 7 9 10 11 12 13 13 15 15 15
7 10 10 7 5 1 4 5 8 17 15 16 17 16 13 13 15 18 20 16 12 12 12 11 10 11 10 10 10 9 9 8 9 8 7 6 7 7 6 6 8 10 12 13 13 12 13 15 16
9 8 8 7 8 7 2 1 11 18 16 17 18 17 16 16 17 18 15 15 16 17 18 17 15 13 11 10 9 8 8 7 8 8 7 6 6 6 6 8 9 11 12 13 13 12 13 14 15
4 3 4 6 7 8 3 6 13 17 17 17 17 17 17 16 16 17 17 19 19 18 18 19 19 17 14 10 6 6 7 8 9 9 8 7 6 6 6 8 10 11 13 13 13 12 14 15 15
3 2 4 4 4 6 4 7 1 12 11 13 14 15 15 14 15 15 15 17 17 17 17 16 17 18 17 17 14 10 9 9 10 11 11 10 8 7 8 9 11 13 13 14 11 12 14 12 12
3 3 2 5 5 7 11 3 6 7 7 7 9 10 12 14 15 15 15 15 15 14 14 14 15 16 16 17 16 15 15 14 12 12 13 12 11 10 10 10 11 13 13 12 11 12 11 9 8
4 3 5 7 5 9 13 4 5 7 5 5 7 9 12 15 15 14 14 14 13 13 12 12 13 14 15 15 14 14 14 16 15 13 14 14 13 13 12 11 10 12 12 11 11 10 8 6 6
Wind_Direction
170 181 211 224 228 182 95 88 46 59 65 56 61 52 39 30 6 69 131 144 146 146 147 156 160 159 154 149 143 138 139 140 141 142 143 142 140 140 140 137 128 122 118 117 119 126 130 134 136
192 189 220 242 246 116 105 97 71 64 70 92 100 109 82 65 48 110 142 149 151 146 147 155 155 156 154 151 149 147 147 146 146 147 148 147 146 146 147 146 141 136 133 134 136 139 139 140 146
223 227 254 254 237 87 105 97 68 101 47 1 88 61 55 61 78 112 130 148 150 143 147 143 152 156 158 157 156 156 155 153 153 155 156 156 157 159 158 159 157 156 158 165 173 171 166 162 163
245 226 234 254 217 94 67 68 44 224 141 58 60 91 87 52 70 109 134 147 145 143 147 137 152 159 161 163 163 161 162 164 165 167 170 170 170 173 174 176 180 185 194 205 218 215 201 192 189
244 253 249 233 195 139 186 165 262 319 49 59 48 93 98 81 97 124 142 149 145 146 141 141 154 161 166 168 169 169 169 173 176 180 185 188 186 189 193 200 210 218 230 243 256 265 264 237 219
240 250 260 240 172 171 198 184 201 66 86 108 111 106 105 119 129 133 145 152 148 147 143 143 156 163 171 175 176 178 178 179 183 188 194 200 201 206 215 225 233 236 239 245 253 260 268 273 273
271 276 272 271 203 185 174 196 232 233 151 119 120 103 124 137 135 142 146 150 150 151 148 146 160 164 170 179 182 185 187 189 191 195 199 204 211 219 228 236 240 244 246 247 252 260 267 273 276
283 273 246 228 213 145 135 190 186 283 76 111 181 113 138 139 141 143 142 146 151 156 155 153 171 173 182 183 186 192 195 196 198 201 206 210 216 220 227 234 237 238 248 254 256 258 262 263 257
261 252 232 190 178 119 116 190 143 215 212 150 82 76 115 137 143 147 148 152 159 171 174 174 186 184 196 196 186 197 201 205 207 208 212 218 227 225 223 222 236 237 244 255 261 264 264 269 261
243 253 234 78 57 5 318 292 201 209 213 186 131 114 130 143 150 155 159 161 170 177 186 191 197 196 205 211 201 204 211 213 217 219 219 222 233 243 260 277 241 244 251 253 257 262 264 265 266
255 268 358 340 351 339 311 269 232 237 238 219 175 152 149 151 155 160 162 165 169 175 183 191 200 206 211 212 216 215 219 224 228 231 243 246 250 254 249 252 242 238 239 250 253 254 262 288 294
263 267 284 303 315 314 306 298 264 239 218 75 132 151 155 157 160 163 163 165 163 174 185 191 196 202 213 220 220 228 230 237 237 236 226 243 249 254 256 266 276 277 272 272 269 285 300 290 278
253 279 289 288 288 285 278 272 275 262 152 119 134 151 159 159 158 159 163 165 169 180 186 190 195 205 211 225 238 245 242 238 245 251 248 235 248 260 275 280 292 291 288 286 298 288 300 291 276
306 294 284 279 271 264 256 256 251 255 133 141 152 156 159 159 160 163 175 178 183 185 187 192 196 204 213 223 234 236 246 251 254 265 274 264 253 260 267 267 262 264 268 269 254 30 322 289 269
283 282 267 237 237 258 256 249 236 228 169 162 163 159 158 161 165 173 183 187 188 191 194 200 202 204 216 228 241 250 248 246 260 264 271 277 279 272 270 279 277 275 273 258 171 173 239 266 271
252 251 250 190 328 69 252 257 220 184 201 179 166 161 161 161 169 178 181 191 193 196 196 207 214 212 224 231 245 250 258 258 265 274 274 277 282 279 274 270 272 280 280 254 183 194 230 257 267
220 240 228 207 76 326 256 274 64 244 207 184 172 165 161 159 165 165 168 176 190 197 199 204 219 228 232 242 253 247 253 265 273 279 278 291 299 292 275 268 276 281 277 260 227 217 223 242 249
209 226 209 228 31 328 334 301 305 217 197 181 179 173 169 161 149 144 145 150 162 172 181 185 202 211 210 215 220 232 246 253 261 271 289 292 284 291 300 293 293 290 283 277 266 255 239 242 251
348 294 267 86 18 330 356 4 164 174 191 185 188 183 175 155 138 135 137 145 149 155 158 166 166 141 156 179 219 224 247 252 255 245 219 231 242 275 294 298 295 284 281 281 278 269 261 256 252
339 291 289 288 35 317 317 301 178 188 198 199 198 195 180 156 150 145 153 157 163 162 162 156 156 151 178 202 233 280 276 272 287 275 243 246 277 290 288 293 289 288 285 274 264 263 266 264 262
295 301 311 303 320 276 264 261 211 205 213 214 209 202 193 174 156 151 169 171 175 178 174 162 169 177 198 212 209 221 232 236 241 244 246 256 289 284 288 288 287 286 279 275 271 266 262 265 266
317 16 313 304 306 299 308 289 257 210 219 223 214 210 206 178 144 172 192 192 197 198 190 181 188 200 209 219 242 261 286 298 307 293 290 301 286 287 290 287 290 285 276 276 273 261 265 267 266
340 2 301 300 298 293 266 265 265 115 272 243 216 213 204 183 163 195 223 225 244 244 223 209 207 216 222 224 240 246 265 285 281 276 275 271 268 275 286 298 299 290 284 288 286 276 265 259 259
310 281 265 253 260 239 81 303 337 52 11 3 70 148 164 270 57 244 277 305 315 305 284 264 249 246 242 238 236 239 255 267 269 261 269 292 301 292 279 293 299 298 295 288 278 274 269 266 268
284 295 288 255 238 36 96 279 54 52 39 40 46 45 36 25 25 26 13 1 355 345 330 311 292 279 267 253 248 244 245 245 246 246 263 287 297 307 315 308 300 301 299 296 287 278 276 272 266
310 298 283 303 315 326 216 203 82 65 61 61 59 54 46 40 42 46 38 24 28 19 9 359 344 322 302 277 256 245 241 239 239 237 254 266 286 295 305 297 296 294 294 296 293 285 276 272 269
300 301 328 296 264 260 216 138 101 61 66 62 56 50 44 36 32 34 30 27 26 23 19 15 7 3 359 344 304 269 256 253 245 238 232 241 252 267 272 287 294 296 298 299 297 293 287 280 272
277 346 281 257 287 293 270 237 41 42 61 59 49 39 31 29 23 21 20 18 13 8 7 10 9 5 5 5 356 343 314 276 255 245 243 246 246 251 268 281 290 294 295 299 305 284 277 276 278
253 221 287 301 296 302 293 329 43 52 55 49 42 30 22 11 7 3 5 4 359 356 355 356 355 352 351 352 347 345 335 318 290 266 257 252 249 247 252 264 279 288 293 301 299 291 290 292 306
260 304 313 307 307 295 287 284 91 98 71 15 355 356 0 356 353 347 343 339 339 341 339 340 340 342 342 335 330 332 327 317 310 301 286 269 255 250 249 253 264 278 287 293 291 295 294 290 314
Height
1515 1514 1516 1518 1510 1493 1500 1497 1496 1492 1494 1500 1501 1501 1502 1505 1505 1514 1519 1518 1521 1525 1526 1528 1532 1535 1538 1540 1543 1545 1546 1548 1549 1551 1552 1552 1553 1554 1555 1555 1556 1557 1558 1558 1558 1558 1558 1559 1559
1516 1516 1519 1515 1498 1498 1503 1499 1496 1499 1501 1502 1503 1503 1503 1508 1512 1515 1516 1517 1522 1526 1528 1530 1532 1536 1539 1541 1544 1545 1547 1548 1550 1551 1553 1553 1554 1555 1556 1556 1556 1558 1559 1559 1559 1559 1559 1560 1560
1516 1517 1518 1505 1493 1497 1502 1498 1499 1502 1503 1502 1502 1504 1507 1512 1516 1517 1517 1518 1524 1527 1529 1531 1533 1536 1539 1541 1544 1545 1547 1549 1550 1552 1552 1553 1554 1555 1556 1557 1557 1557 1558 1559 1559 1559 1560 1560 1560
1520 1520 1515 1502 1491 1496 1497 1498 1501 1502 1501 1503 1503 1505 1511 1516 1517 1518 1518 1522 1526 1529 1531 1531 1534 1536 1540 1542 1544 1545 1547 1548 1550 1551 1552 1553 1553 1555 1556 1557 1557 1557 1558 1559 1559 1559 1559 1559 1559
1521 1517 1503 1497 1491 1496 1498 1501 1502 1501 1500 1503 1503 1506 1513 1517 1517 1518 1521 1525 1528 1531 1533 1531 1535 1537 1540 1542 1544 1546 1547 1549 1550 1551 1552 1553 1553 1554 1555 1555 1556 1557 1557 1558 1559 1559 1559 1559 1558
1519 1512 1501 1495 1495 1496 1496 1499 1500 1501 1501 1504 1504 1506 1514 1518 1519 1521 1523 1527 1530 1531 1533 1532 1534 1537 1539 1542 1544 1545 1547 1548 1550 1551 1552 1553 1553 1553 1554 1554 1555 1555 1555 1556 1557 1558 1558 1557 1557
1517 1506 1500 1498 1495 1497 1496 1499 1498 1498 1500 1503 1505 1505 1514 1519 1520 1521 1524 1528 1530 1532 1534 1533 1534 1536 1538 1541 1543 1545 1547 1548 1549 1549 1550 1552 1552 1552 1553 1553 1553 1554 1554 1554 1555 1555 1555 1555 1555
1515 1508 1499 1495 1496 1495 1498 1498 1501 1501 1500 1505 1506 1505 1511 1517 1518 1521 1524 1527 1530 1532 1534 1534 1535 1535 1537 1539 1541 1543 1545 1546 1547 1548 1549 1550 1550 1550 1551 1551 1551 1552 1552 1552 1552 1553 1552 1552 1552
1516 1507 1497 1491 1496 1497 1498 1497 1501 1502 1502 1505 1507 1509 1511 1513 1517 1521 1525 1527 1529 1531 1533 1534 1536 1536 1537 1539 1540 1541 1543 1544 1545 1545 1546 1547 1548 1549 1549 1550 1550 1550 1549 1549 1549 1550 1549 1549 1548
1512 1502 1492 1496 1499 1499 1498 1498 1498 1500 1500 1503 1508 1510 1511 1513 1518 1522 1525 1526 1527 1529 1530 1532 1534 1535 1536 1538 1539 1539 1542 1543 1544 1545 1546 1546 1547 1548 1548 1548 1546 1547 1546 1546 1546 1547 1546 1545 1545
1509 1500 1498 1501 1502 1501 1499 1496 1496 1497 1495 1498 1502 1508 1511 1515 1518 1521 1523 1525 1526 1527 1528 1529 1530 1532 1534 1536 1538 1540 1541 1542 1543 1543 1543 1544 1544 1544 1544 1544 1544 1544 1544 1544 1544 1544 1543 1542 1540
1511 1504 1505 1503 1502 1502 1499 1497 1495 1495 1495 1499 1502 1505 1509 1514 1517 1520 1521 1523 1525 1525 1527 1528 1528 1530 1532 1534 1536 1537 1538 1540 1541 1541 1539 1538 1538 1540 1541 1540 1541 1541 1541 1541 1541 1541 1538 1536 1536
1507 1504 1503 1502 1501 1499 1498 1497 1495 1493 1495 1499 1501 1504 1508 1512 1515 1518 1520 1522 1523 1525 1526 1528 1529 1529 1530 1531 1533 1534 1536 1537 1538 1537 1537 1535 1534 1535 1535 1534 1534 1534 1535 1536 1535 1537 1536 1534 1531
1507 1506 1502 1500 1498 1497 1496 1493 1495 1492 1496 1499 1502 1504 1508 1511 1513 1515 1517 1520 1522 1524 1525 1527 1527 1528 1529 1529 1530 1531 1532 1533 1533 1532 1531 1531 1532 1531 1531 1530 1529 1528 1528 1528 1529 1532 1534 1530 1525
1507 1504 1497 1495 1496 1495 1496 1492 1490 1491 1496 1498 1500 1503 1506 1508 1511 1513 1516 1518 1520 1521 1523 1524 1526 1527 1527 1527 1527 1528 1529 1530 1530 1530 1529 1528 1528 1526 1526 1525 1524 1524 1523 1522 1521 1525 1528 1524 1519
1503 1500 1496 1490 1494 1495 1498 1490 1483 1492 1495 1497 1500 1502 1504 1507 1510 1512 1515 1516 1518 1520 1520 1522 1524 1526 1526 1525 1525 1524 1526 1527 1527 1527 1525 1524 1523 1521 1520 1519 1519 1519 1518 1517 1516 1518 1518 1515 1514
1498 1496 1493 1490 1493 1492 1493 1487 1490 1494 1494 1496 1500 1502 1503 1506 1508 1510 1511 1513 1515 1517 1518 1519 1521 1523 1524 1523 1523 1523 1523 1524 1524 1524 1523 1520 1520 1518 1516 1515 1514 1514 1514 1514 1513 1512 1512 1510 1506
1495 1493 1495 1493 1491 1488 1487 1488 1493 1495 1494 1496 1500 1502 1503 1504 1506 1507 1508 1510 1512 1515 1517 1518 1520 1521 1521 1521 1521 1522 1522 1522 1522 1522 1521 1518 1517 1516 1514 1513 1512 1511 1511 1511 1510 1509 1508 1504 1502
1496 1497 1496 1493 1492 1490 1490 1491 1492 1496 1497 1498 1500 1502 1503 1504 1505 1506 1508 1511 1512 1515 1517 1518 1519 1519 1520 1521 1522 1522 1522 1522 1521 1519 1518 1517 1516 1515 1513 1512 1510 1509 1507 1505 1504 1503 1502 1500 1499
1497 1499 1495 1492 1491 1492 1491 1490 1490 1495 1495 1496 1498 1500 1502 1504 1505 1507 1509 1512 1514 1515 1516 1516 1517 1518 1518 1520 1521 1521 1521 1520 1519 1518 1517 1515 1514 1512 1510 1508 1507 1504 1502 1500 1498 1497 1496 1495 1494
1496 1500 1499 1499 1493 1490 1492 1492 1487 1489 1494 1496 1497 1498 1501 1504 1505 1508 1510 1512 1513 1515 1515 1516 1516 1517 1518 1518 1519 1518 1517 1516 1516 1516 1515 1513 1510 1508 1506 1504 1501 1498 1495 1495 1493 1491 1490 1488 1487
1498 1496 1499 1500 1501 1496 1496 1506 1487 1483 1489 1493 1496 1499 1501 1503 1506 1508 1510 1510 1512 1513 1514 1514 1514 1515 1516 1516 1517 1516 1516 1514 1513 1513 1512 1510 1507 1504 1501 1499 1496 1493 1490 1489 1487 1484 1483 1482 1481
1499 1499 1498 1500 1502 1500 1495 1503 1487 1486 1491 1488 1492 1499 1501 1502 1505 1507 1508 1510 1511 1512 1513 1513 1512 1512 1513 1513 1513 1513 1513 1511 1510 1508 1506 1504 1503 1500 1497 1495 1492 1489 1486 1483 1480 1479 1477 1475 1474
1500 1499 1497 1495 1496 1502 1501 1502 1493 1490 1495 1489 1491 1499 1504 1504 1505 1507 1508 1510 1511 1510 1511 1511 1510 1509 1510 1510 1509 1509 1508 1507 1506 1505 1503 1502 1500 1498 1495 1491 1488 1485 1482 1479 1475 1474 1472 1470 1468
1498 1503 1505 1496 1497 1499 1499 1500 1499 1504 1506 1505 1505 1508 1507 1508 1508 1505 1505 1508 1510 1510 1509 1509 1508 1506 1506 1505 1505 1504 1504 1503 1502 1501 1501 1498 1496 1494 1491 1486 1483 1480 1478 1475 1472 1469 1466 1464 1461
1500 1505 1515 1514 1510 1504 1500 1498 1512 1512 1513 1514 1515 1515 1514 1511 1511 1511 1515 1514 1508 1507 1505 1504 1503 1502 1501 1500 1499 1499 1499 1499 1498 1497 1495 1493 1491 1488 1486 1482 1479 1477 1475 1473 1469 1465 1461 1459 1456
1505 1497 1499 1502 1506 1507 1493 1493 1508 1513 1516 1519 1520 1520 1518 1516 1513 1513 1513 1509 1507 1506 1505 1503 1503 1501 1499 1497 1496 1495 1495 1495 1494 1492 1489 1488 1486 1484 1481 1479 1476 1473 1471 1469 1464 1459 1456 1453 1450
1503 1500 1508 1497 1507 1509 1497 1495 1496 1514 1518 1521 1523 1522 1520 1518 1516 1514 1512 1509 1508 1509 1507 1506 1505 1503 1500 1496 1494 1493 1492 1491 1489 1487 1484 1483 1481 1478 1477 1475 1472 1470 1468 1465 1459 1454 1452 1448 1444
1499 1498 1501 1503 1500 1511 1513 1500 1517 1520 1522 1523 1524 1525 1524 1522 1519 1516 1513 1511 1510 1510 1507 1504 1502 1500 1498 1495 1493 1489 1488 1488 1485 1482 1479 1477 1475 1473 1471 1469 1467 1466 1464 1460 1455 1451 1447 1444 1439
1499 1498 1501 1506 1504 1504 1507 1516 1521 1522 1525 1525 1525 1525 1524 1523 1521 1518 1515 1512 1509 1506 1503 1501 1498 1496 1493 1493 1490 1485 1483 1484 1480 1475 1473 1472 1470 1469 1467 1463 1461 1459 1459 1456 1453 1449 1444 1441 1438